Location: Lafig�re
(44.4503°N, 4.0357°E)
Time: 17:39:29
(UTC+00:00)

S-56A Canister/Altair - Pass Details

Date: 25 January 2021
Orbit: 631 x 2501 km, 38.9° (Epoch: 04 March)

Event Time Altitude Azimuth Distance (km) Brightness Sun altitude
Rises 02:29:50 0° 241° (WSW) 3,050 - -49.1°
Reaches altitude 10° 02:32:24 10° 232° (SW) 2,046 - -48.7°
Maximum altitude 02:36:29 34° 167° (SSE) 1,030 - -48.1°
Drops below altitude 10° 02:40:39 10° 101° (E) 2,094 - -47.4°
Exits shadow 02:42:29 - 94° (E) 2,804 11.0 -47.1°
Sets 02:43:19 0° 92° (E) 3,134 11.3 -46.9°
